EZY557 EGKK-EDDH

Flight info

Callsign EZY557
Flight time 1h 29m
Altitude 37000
Route FRANE M604 PAAVO Q295 SOMVA DCT MAVAS DCT TULIP Y12 SPY N873 ANDIK M105 RIBSO RIBSO3P
Aircraft A320/M-SDE3FGHIRWY/LB1

Departure

Time 2026-04-22 22:06
Airport London Gatwick Airport (EGKK)

Arrival

Time 2026-04-22 23:35
Airport Hamburg Helmut Schmidt Airport (EDDH)
Time Latitude Longitude Altitude Speed Heading
2026-04-22 21:14 51.15312 -0.17990 206 ft 0 kts 348°
2026-04-22 21:50 51.15290 -0.17983 210 ft 4 kts 345°
2026-04-22 21:51 51.15264 -0.17969 215 ft 4 kts 335°
2026-04-22 21:51 51.15242 -0.17948 213 ft 4 kts 306°
2026-04-22 21:51 51.15237 -0.17922 213 ft 1 kts 257°
2026-04-22 21:52 51.15237 -0.17916 212 ft 0 kts 257°
2026-04-22 21:56 51.15235 -0.17936 217 ft 7 kts 257°
2026-04-22 21:57 51.15217 -0.18062 213 ft 12 kts 257°
2026-04-22 21:57 51.15200 -0.18188 214 ft 11 kts 257°
2026-04-22 21:57 51.15184 -0.18306 212 ft 11 kts 257°
2026-04-22 21:57 51.15171 -0.18415 214 ft 10 kts 258°
2026-04-22 21:58 51.15158 -0.18515 214 ft 9 kts 258°
2026-04-22 21:58 51.15146 -0.18609 205 ft 8 kts 258°
2026-04-22 21:58 51.15134 -0.18700 205 ft 9 kts 258°
2026-04-22 21:58 51.15122 -0.18790 207 ft 8 kts 258°
2026-04-22 21:59 51.15111 -0.18873 209 ft 7 kts 258°
2026-04-22 21:59 51.15101 -0.18946 208 ft 6 kts 258°
2026-04-22 21:59 51.15093 -0.19006 210 ft 5 kts 258°
2026-04-22 21:59 51.15086 -0.19058 213 ft 4 kts 258°
2026-04-22 22:00 51.15069 -0.19183 208 ft 19 kts 258°
2026-04-22 22:00 51.15040 -0.19395 213 ft 19 kts 258°
2026-04-22 22:00 51.15013 -0.19595 209 ft 18 kts 258°
2026-04-22 22:00 51.14989 -0.19781 204 ft 17 kts 258°
2026-04-22 22:01 51.14963 -0.19953 203 ft 16 kts 257°
2026-04-22 22:01 51.14939 -0.20116 213 ft 15 kts 257°
2026-04-22 22:01 51.14918 -0.20266 203 ft 14 kts 258°
2026-04-22 22:01 51.14900 -0.20409 206 ft 13 kts 258°
2026-04-22 22:02 51.14882 -0.20542 212 ft 12 kts 258°
2026-04-22 22:02 51.14865 -0.20665 206 ft 11 kts 256°
2026-04-22 22:02 51.14840 -0.20837 212 ft 22 kts 257°
2026-04-22 22:02 51.14806 -0.21088 204 ft 23 kts 258°
2026-04-22 22:03 51.14774 -0.21317 202 ft 8 kts 250°
2026-04-22 22:03 51.14722 -0.21346 210 ft 8 kts 182°
2026-04-22 22:03 51.14671 -0.21340 205 ft 8 kts 174°
2026-04-22 22:03 51.14582 -0.21309 208 ft 15 kts 157°
2026-04-22 22:04 51.14520 -0.21181 207 ft 16 kts 97°
2026-04-22 22:04 51.14532 -0.21078 209 ft 0 kts 78°
2026-04-22 22:05 51.14532 -0.21075 208 ft 3 kts 78°
2026-04-22 22:05 51.14582 -0.20715 211 ft 64 kts 78°
2026-04-22 22:05 51.14738 -0.19566 206 ft 146 kts 78°
2026-04-22 22:06 51.14971 -0.17819 859 ft 163 kts 78°
2026-04-22 22:06 51.15220 -0.15997 1805 ft 178 kts 80°
2026-04-22 22:06 51.15499 -0.13936 2456 ft 202 kts 82°
2026-04-22 22:06 51.15815 -0.11607 3106 ft 226 kts 81°
2026-04-22 22:07 51.16154 -0.09128 3954 ft 238 kts 81°
2026-04-22 22:07 51.16515 -0.06494 4741 ft 250 kts 80°
2026-04-22 22:07 51.16850 -0.03763 4976 ft 252 kts 87°
2026-04-22 22:07 51.16845 -0.00968 5029 ft 252 kts 92°
2026-04-22 22:08 51.16800 0.01834 5094 ft 252 kts 93°
2026-04-22 22:08 51.16750 0.04631 5111 ft 252 kts 93°
2026-04-22 22:08 51.16701 0.07424 5115 ft 252 kts 92°
2026-04-22 22:08 51.17027 0.10155 5123 ft 256 kts 66°
2026-04-22 22:09 51.18161 0.12342 5372 ft 262 kts 44°
2026-04-22 22:09 51.19585 0.14189 5750 ft 266 kts 41°
2026-04-22 22:09 51.21047 0.16022 6144 ft 268 kts 41°
2026-04-22 22:09 51.22517 0.17865 6525 ft 270 kts 41°
2026-04-22 22:10 51.24000 0.19721 6911 ft 272 kts 41°
2026-04-22 22:10 51.25494 0.21593 7281 ft 274 kts 41°
2026-04-22 22:10 51.26980 0.23455 7644 ft 276 kts 41°
2026-04-22 22:10 51.28515 0.25377 8019 ft 277 kts 41°
2026-04-22 22:11 51.30015 0.27254 8388 ft 279 kts 41°
2026-04-22 22:11 51.31547 0.29167 8765 ft 280 kts 41°
2026-04-22 22:11 51.33089 0.31093 9030 ft 282 kts 41°
2026-04-22 22:11 51.34637 0.33029 9413 ft 283 kts 41°
2026-04-22 22:12 51.36192 0.34983 9806 ft 285 kts 41°
2026-04-22 22:12 51.37759 0.36957 10207 ft 287 kts 41°
2026-04-22 22:12 51.38820 0.38294 10451 ft 290 kts 41°
2026-04-22 22:12 51.40475 0.40389 10831 ft 316 kts 41°
2026-04-22 22:13 51.42254 0.42654 11207 ft 334 kts 41°
2026-04-22 22:13 51.44070 0.44969 11580 ft 340 kts 41°
2026-04-22 22:13 51.45938 0.47349 11955 ft 343 kts 41°
2026-04-22 22:13 51.47810 0.49736 12330 ft 344 kts 41°
2026-04-22 22:14 51.49683 0.52139 12715 ft 346 kts 41°
2026-04-22 22:14 51.51584 0.54540 13102 ft 349 kts 38°
2026-04-22 22:14 51.53652 0.56676 13842 ft 355 kts 35°
2026-04-22 22:14 51.55765 0.58771 14762 ft 359 kts 34°
2026-04-22 22:15 51.57918 0.60869 15647 ft 363 kts 33°
2026-04-22 22:15 51.60094 0.62977 16440 ft 367 kts 33°
2026-04-22 22:15 51.62289 0.65103 17103 ft 370 kts 33°
2026-04-22 22:15 51.64499 0.67252 17798 ft 373 kts 33°
2026-04-22 22:16 51.66726 0.69431 18495 ft 376 kts 34°
2026-04-22 22:16 51.68934 0.71605 19109 ft 378 kts 34°
2026-04-22 22:16 51.71183 0.73825 19725 ft 380 kts 33°
2026-04-22 22:16 51.73538 0.75805 20349 ft 384 kts 24°
2026-04-22 22:17 51.76103 0.77085 21006 ft 387 kts 14°
2026-04-22 22:17 51.78724 0.78074 21656 ft 388 kts 16°
2026-04-22 22:17 51.81273 0.79540 22298 ft 388 kts 26°
2026-04-22 22:17 51.83609 0.81724 22858 ft 390 kts 36°
2026-04-22 22:18 51.85704 0.84530 23435 ft 392 kts 46°
2026-04-22 22:18 51.87261 0.88163 23953 ft 396 kts 65°
2026-04-22 22:18 51.87982 0.92487 24378 ft 403 kts 84°
2026-04-22 22:18 51.88069 0.97044 24773 ft 407 kts 85°
2026-04-22 22:19 51.88339 1.01608 25192 ft 408 kts 79°
2026-04-22 22:19 51.88963 1.06101 25584 ft 409 kts 70°
2026-04-22 22:19 51.89961 1.10408 25969 ft 410 kts 66°
2026-04-22 22:19 51.90646 1.14911 26347 ft 419 kts 85°
2026-04-22 22:20 51.90241 1.19623 26698 ft 431 kts 107°
2026-04-22 22:20 51.88745 1.23873 27025 ft 443 kts 129°
2026-04-22 22:20 51.86378 1.27003 27335 ft 452 kts 150°
2026-04-22 22:20 51.83386 1.28630 27637 ft 459 kts 173°
2026-04-22 22:21 51.80204 1.28453 27924 ft 460 kts 195°
2026-04-22 22:21 51.77218 1.26625 28228 ft 460 kts 208°
2026-04-22 22:21 51.74207 1.24807 28529 ft 468 kts 193°
2026-04-22 22:21 51.70954 1.24627 28827 ft 473 kts 171°
2026-04-22 22:22 51.67817 1.26259 29110 ft 475 kts 150°
2026-04-22 22:22 51.65219 1.29499 29372 ft 472 kts 128°
2026-04-22 22:22 51.63467 1.33918 29627 ft 467 kts 109°
2026-04-22 22:22 51.62405 1.38834 29893 ft 465 kts 100°
2026-04-22 22:23 51.61768 1.43914 30148 ft 462 kts 91°
2026-04-22 22:23 51.61756 1.49023 30461 ft 452 kts 76°
2026-04-22 22:23 51.62592 1.53805 30718 ft 439 kts 59°
2026-04-22 22:23 51.64218 1.57882 30949 ft 429 kts 43°
2026-04-22 22:24 51.66309 1.61182 31166 ft 426 kts 38°
2026-04-22 22:24 51.68472 1.64473 31379 ft 429 kts 38°
2026-04-22 22:24 51.70625 1.67815 31579 ft 431 kts 39°
2026-04-22 22:24 51.72775 1.71205 31787 ft 432 kts 39°
2026-04-22 22:25 51.74914 1.74609 32066 ft 431 kts 39°
2026-04-22 22:25 51.77048 1.78009 32338 ft 431 kts 39°
2026-04-22 22:25 51.79180 1.81403 32607 ft 431 kts 39°
2026-04-22 22:25 51.81323 1.84808 32890 ft 430 kts 40°
2026-04-22 22:26 51.83458 1.88194 33154 ft 430 kts 40°
2026-04-22 22:26 51.85590 1.91577 33424 ft 430 kts 40°
2026-04-22 22:26 51.87728 1.94978 33731 ft 430 kts 40°
2026-04-22 22:26 51.89859 1.98373 33998 ft 430 kts 41°
2026-04-22 22:27 51.91991 2.01771 34259 ft 430 kts 40°
2026-04-22 22:27 51.94123 2.05171 34518 ft 430 kts 40°
2026-04-22 22:27 51.96258 2.08574 34749 ft 430 kts 41°
2026-04-22 22:27 51.98363 2.11940 34971 ft 430 kts 41°
2026-04-22 22:28 52.00489 2.15349 35190 ft 431 kts 41°
2026-04-22 22:28 52.02624 2.18777 35400 ft 431 kts 41°
2026-04-22 22:28 52.04762 2.22215 35595 ft 432 kts 42°
2026-04-22 22:28 52.06902 2.25663 35784 ft 433 kts 42°
2026-04-22 22:29 52.09040 2.29119 35978 ft 433 kts 42°
2026-04-22 22:29 52.11179 2.32585 36170 ft 434 kts 42°
2026-04-22 22:29 52.13312 2.36044 36355 ft 434 kts 42°
2026-04-22 22:29 52.15455 2.39518 36539 ft 435 kts 43°
2026-04-22 22:30 52.17598 2.42992 36730 ft 435 kts 43°
2026-04-22 22:30 52.19718 2.46432 36927 ft 435 kts 43°
2026-04-22 22:30 52.21864 2.49922 37126 ft 434 kts 43°
2026-04-22 22:30 52.23996 2.53400 37326 ft 434 kts 43°
2026-04-22 22:31 52.26129 2.56887 37435 ft 434 kts 44°
2026-04-22 22:31 52.30027 2.64404 37447 ft 436 kts 57°
2026-04-22 22:32 52.32353 2.73568 37445 ft 440 kts 72°
2026-04-22 22:32 52.34047 2.83213 37447 ft 440 kts 72°
2026-04-22 22:33 52.35740 2.92852 37453 ft 441 kts 71°
2026-04-22 22:33 52.37416 3.02490 37447 ft 440 kts 72°
2026-04-22 22:34 52.39072 3.12121 37449 ft 439 kts 74°
2026-04-22 22:34 52.39644 3.22084 37441 ft 444 kts 91°
2026-04-22 22:35 52.39201 3.32112 37444 ft 445 kts 92°
2026-04-22 22:35 52.38815 3.41087 37441 ft 444 kts 91°
2026-04-22 22:36 52.38387 3.50891 37439 ft 444 kts 92°
2026-04-22 22:36 52.37935 3.60965 37447 ft 443 kts 92°
2026-04-22 22:37 52.37465 3.70995 37437 ft 442 kts 92°
2026-04-22 22:37 52.37001 3.81037 37444 ft 442 kts 90°
2026-04-22 22:38 52.37694 3.90924 37449 ft 437 kts 72°
2026-04-22 22:38 52.39410 4.00486 37438 ft 438 kts 73°
2026-04-22 22:39 52.41099 4.10081 37442 ft 439 kts 73°
2026-04-22 22:39 52.42770 4.19693 37434 ft 439 kts 73°
2026-04-22 22:40 52.44443 4.29310 37440 ft 439 kts 73°
2026-04-22 22:40 52.46115 4.38917 37432 ft 437 kts 73°
2026-04-22 22:41 52.47756 4.48455 37427 ft 437 kts 74°
2026-04-22 22:41 52.49396 4.58050 37433 ft 437 kts 74°
2026-04-22 22:42 52.51034 4.67658 37426 ft 437 kts 74°
2026-04-22 22:42 52.52664 4.77270 37434 ft 437 kts 74°
2026-04-22 22:43 52.54844 4.86558 37429 ft 436 kts 59°
2026-04-22 22:43 52.58458 4.94567 37438 ft 437 kts 52°
2026-04-22 22:44 52.62229 5.02414 37423 ft 436 kts 52°
2026-04-22 22:44 52.65957 5.10229 37433 ft 436 kts 53°
2026-04-22 22:45 52.69690 5.18087 37445 ft 435 kts 53°
2026-04-22 22:45 52.73317 5.26053 37440 ft 433 kts 60°
2026-04-22 22:46 52.75702 5.35140 37454 ft 432 kts 71°
2026-04-22 22:46 52.77708 5.44486 37446 ft 432 kts 71°
2026-04-22 22:47 52.79715 5.53839 37448 ft 432 kts 71°
2026-04-22 22:47 52.81719 5.63178 37450 ft 430 kts 72°
2026-04-22 22:48 52.83711 5.72486 37427 ft 429 kts 72°
2026-04-22 22:48 52.85673 5.81738 37445 ft 429 kts 72°
2026-04-22 22:49 52.87636 5.91061 37434 ft 427 kts 72°
2026-04-22 22:49 52.89589 6.00351 37434 ft 426 kts 72°
2026-04-22 22:50 52.91524 6.09616 37430 ft 425 kts 73°
2026-04-22 22:50 52.93441 6.18849 37429 ft 422 kts 73°
2026-04-22 22:51 52.95344 6.28051 37428 ft 421 kts 73°
2026-04-22 22:51 52.97244 6.37259 37426 ft 421 kts 73°
2026-04-22 22:52 52.99131 6.46457 37430 ft 421 kts 73°
2026-04-22 22:52 53.01005 6.55629 37425 ft 421 kts 73°
2026-04-22 22:53 53.02880 6.64842 37436 ft 419 kts 74°
2026-04-22 22:53 53.04729 6.73979 37435 ft 416 kts 74°
2026-04-22 22:54 53.06570 6.83094 37431 ft 415 kts 74°
2026-04-22 22:54 53.08392 6.92173 37432 ft 413 kts 74°
2026-04-22 22:55 53.10195 7.01236 37426 ft 413 kts 74°
2026-04-22 22:55 53.12894 7.14880 37420 ft 413 kts 74°
2026-04-22 22:56 53.14669 7.23886 37429 ft 411 kts 74°
2026-04-22 22:56 53.16446 7.32939 37429 ft 411 kts 74°
2026-04-22 22:57 53.18216 7.41992 37425 ft 411 kts 74°
2026-04-22 22:57 53.19982 7.51073 37415 ft 411 kts 74°
2026-04-22 22:58 53.21741 7.60134 37409 ft 411 kts 75°
2026-04-22 22:58 53.23192 7.67680 37410 ft 411 kts 75°
2026-04-22 22:59 53.24929 7.76755 37410 ft 410 kts 75°
2026-04-22 22:59 53.26663 7.85831 37404 ft 410 kts 75°
2026-04-22 23:00 53.28398 7.94944 36670 ft 412 kts 75°
2026-04-22 23:00 53.29260 7.99499 36032 ft 409 kts 76°
2026-04-22 23:00 53.30112 8.04015 35406 ft 406 kts 76°
2026-04-22 23:01 53.30961 8.08506 34800 ft 404 kts 77°
2026-04-22 23:01 53.31803 8.12982 34168 ft 401 kts 77°
2026-04-22 23:01 53.32635 8.17406 33491 ft 398 kts 76°
2026-04-22 23:01 53.33538 8.21776 32825 ft 396 kts 75°
2026-04-22 23:02 53.34516 8.26071 32169 ft 394 kts 73°
2026-04-22 23:02 53.35530 8.30316 31523 ft 392 kts 72°
2026-04-22 23:02 53.36547 8.34530 30899 ft 389 kts 72°
2026-04-22 23:02 53.37548 8.38730 30274 ft 386 kts 72°
2026-04-22 23:03 53.38526 8.42912 29562 ft 384 kts 72°
2026-04-22 23:03 53.39486 8.47085 28858 ft 383 kts 72°
2026-04-22 23:03 53.40439 8.51248 28176 ft 382 kts 72°
2026-04-22 23:03 53.41445 8.55305 27524 ft 381 kts 70°
2026-04-22 23:04 53.42531 8.59354 26881 ft 381 kts 68°
2026-04-22 23:04 53.43654 8.63384 26230 ft 381 kts 67°
2026-04-22 23:04 53.44780 8.67403 25575 ft 381 kts 67°
2026-04-22 23:04 53.45901 8.71451 24896 ft 383 kts 67°
2026-04-22 23:05 53.47013 8.75518 24233 ft 384 kts 67°
2026-04-22 23:05 53.48121 8.79614 23509 ft 386 kts 67°
2026-04-22 23:05 53.49228 8.83741 22702 ft 389 kts 66°
2026-04-22 23:05 53.50337 8.87903 21903 ft 392 kts 66°
2026-04-22 23:06 53.51453 8.92092 21121 ft 394 kts 66°
2026-04-22 23:06 53.52591 8.96309 20355 ft 396 kts 63°
2026-04-22 23:06 53.54067 9.00219 19625 ft 397 kts 51°
2026-04-22 23:06 53.55996 9.03542 18907 ft 398 kts 39°
2026-04-22 23:07 53.58230 9.06282 18128 ft 398 kts 35°
2026-04-22 23:07 53.60489 9.08968 17328 ft 398 kts 35°
2026-04-22 23:07 53.62747 9.11663 16550 ft 398 kts 35°
2026-04-22 23:07 53.65000 9.14364 15818 ft 397 kts 35°
2026-04-22 23:08 53.67221 9.17037 15360 ft 388 kts 35°
2026-04-22 23:08 53.69395 9.19659 14917 ft 380 kts 35°
2026-04-22 23:08 53.71524 9.22226 14481 ft 372 kts 35°
2026-04-22 23:08 53.73579 9.24708 14014 ft 365 kts 36°
2026-04-22 23:09 53.75627 9.27184 13481 ft 359 kts 35°
2026-04-22 23:09 53.77642 9.29620 12950 ft 353 kts 35°
2026-04-22 23:09 53.79523 9.32233 12440 ft 348 kts 45°
2026-04-22 23:09 53.80969 9.35500 11924 ft 345 kts 59°
2026-04-22 23:10 53.81887 9.39216 11421 ft 342 kts 73°
2026-04-22 23:10 53.82384 9.43129 10932 ft 338 kts 77°
2026-04-22 23:10 53.82847 9.46990 10535 ft 331 kts 76°
2026-04-22 23:10 53.83304 9.50769 10168 ft 324 kts 76°
2026-04-22 23:11 53.83753 9.54475 9766 ft 317 kts 76°
2026-04-22 23:11 53.84192 9.58102 9371 ft 311 kts 76°
2026-04-22 23:11 53.84621 9.61661 9017 ft 305 kts 76°
2026-04-22 23:11 53.85035 9.65125 8786 ft 296 kts 76°
2026-04-22 23:12 53.85434 9.68493 8553 ft 287 kts 76°
2026-04-22 23:12 53.85821 9.71756 8330 ft 278 kts 76°
2026-04-22 23:12 53.86192 9.74891 8202 ft 267 kts 75°
2026-04-22 23:12 53.86551 9.77930 8021 ft 258 kts 76°
2026-04-22 23:13 53.86669 9.80917 7845 ft 253 kts 91°
2026-04-22 23:13 53.86468 9.83841 7670 ft 245 kts 93°
2026-04-22 23:13 53.86271 9.86623 7499 ft 237 kts 93°
2026-04-22 23:13 53.86080 9.89365 7352 ft 230 kts 93°
2026-04-22 23:14 53.85890 9.92062 7356 ft 232 kts 93°
2026-04-22 23:14 53.85699 9.94780 7356 ft 233 kts 93°
2026-04-22 23:14 53.85506 9.97504 7356 ft 233 kts 93°
2026-04-22 23:14 53.85313 10.00223 7359 ft 233 kts 93°
2026-04-22 23:15 53.85118 10.02950 7356 ft 233 kts 93°
2026-04-22 23:15 53.84922 10.05670 7361 ft 233 kts 93°
2026-04-22 23:15 53.84725 10.08390 7356 ft 233 kts 93°
2026-04-22 23:15 53.84527 10.11112 7353 ft 233 kts 93°
2026-04-22 23:16 53.84329 10.13846 7353 ft 233 kts 93°
2026-04-22 23:16 53.84183 10.16572 7352 ft 231 kts 84°
2026-04-22 23:16 53.84439 10.19223 7352 ft 226 kts 67°
2026-04-22 23:16 53.85110 10.21582 7226 ft 221 kts 51°
2026-04-22 23:17 53.86073 10.23584 7103 ft 219 kts 45°
2026-04-22 23:17 53.87053 10.25553 6981 ft 218 kts 46°
2026-04-22 23:17 53.88024 10.27522 6856 ft 218 kts 46°
2026-04-22 23:17 53.88994 10.29492 6738 ft 218 kts 46°
2026-04-22 23:18 53.89966 10.31468 6546 ft 217 kts 45°
2026-04-22 23:18 53.90932 10.33433 6335 ft 217 kts 45°
2026-04-22 23:18 53.91888 10.35380 6135 ft 212 kts 45°
2026-04-22 23:18 53.92811 10.37264 5930 ft 208 kts 45°
2026-04-22 23:19 53.93725 10.39130 5728 ft 203 kts 45°
2026-04-22 23:19 53.94622 10.40959 5522 ft 199 kts 45°
2026-04-22 23:19 53.95500 10.42748 5320 ft 195 kts 45°
2026-04-22 23:19 53.96365 10.44515 5119 ft 193 kts 44°
2026-04-22 23:20 53.97107 10.46406 4900 ft 198 kts 68°
2026-04-22 23:20 53.97096 10.48761 4695 ft 209 kts 108°
2026-04-22 23:20 53.96176 10.50641 4620 ft 214 kts 152°
2026-04-22 23:20 53.94749 10.51109 4596 ft 210 kts 195°
2026-04-22 23:21 53.93513 10.49990 4574 ft 199 kts 235°
2026-04-22 23:21 53.92673 10.48145 4557 ft 199 kts 237°
2026-04-22 23:21 53.91811 10.46341 4534 ft 199 kts 236°
2026-04-22 23:21 53.90925 10.44536 4505 ft 199 kts 236°
2026-04-22 23:22 53.90045 10.42720 4464 ft 198 kts 241°
2026-04-22 23:22 53.89593 10.40632 4444 ft 185 kts 275°
2026-04-22 23:22 53.89899 10.38596 4418 ft 177 kts 307°
2026-04-22 23:22 53.90797 10.37245 4394 ft 174 kts 336°
2026-04-22 23:23 53.91990 10.36942 4369 ft 178 kts
2026-04-22 23:23 53.93118 10.37830 4341 ft 186 kts 38°
2026-04-22 23:23 53.93968 10.39530 4326 ft 190 kts 45°
2026-04-22 23:23 53.94804 10.41273 4276 ft 191 kts 45°
2026-04-22 23:24 53.95636 10.43024 4144 ft 191 kts 50°
2026-04-22 23:24 53.95996 10.45200 4044 ft 203 kts 94°
2026-04-22 23:24 53.95370 10.47369 3963 ft 212 kts 129°
2026-04-22 23:24 53.94299 10.49118 3862 ft 214 kts 139°
2026-04-22 23:25 53.93136 10.50693 3763 ft 214 kts 141°
2026-04-22 23:25 53.91952 10.52235 3659 ft 214 kts 144°
2026-04-22 23:25 53.90588 10.53055 3551 ft 208 kts 188°
2026-04-22 23:25 53.89306 10.52190 3453 ft 196 kts 231°
2026-04-22 23:26 53.88420 10.50460 3350 ft 195 kts 237°
2026-04-22 23:26 53.87559 10.48682 3250 ft 195 kts 237°
2026-04-22 23:26 53.86694 10.46906 3153 ft 196 kts 234°
2026-04-22 23:26 53.85774 10.45206 3060 ft 196 kts 234°
2026-04-22 23:27 53.84884 10.43466 2984 ft 195 kts 236°
2026-04-22 23:27 53.84016 10.41702 2988 ft 195 kts 237°
2026-04-22 23:27 53.83154 10.39930 2988 ft 195 kts 237°
2026-04-22 23:27 53.82301 10.38175 2989 ft 195 kts 237°
2026-04-22 23:28 53.81439 10.36401 2989 ft 195 kts 237°
2026-04-22 23:28 53.80575 10.34624 2989 ft 195 kts 237°
2026-04-22 23:28 53.79711 10.32848 2981 ft 195 kts 237°
2026-04-22 23:28 53.78847 10.31073 3003 ft 195 kts 236°
2026-04-22 23:29 53.77982 10.29298 3007 ft 196 kts 237°
2026-04-22 23:29 53.77120 10.27531 3006 ft 195 kts 237°
2026-04-22 23:29 53.76256 10.25760 3005 ft 195 kts 237°
2026-04-22 23:29 53.75392 10.23991 3007 ft 196 kts 237°
2026-04-22 23:30 53.74547 10.22267 3038 ft 182 kts 237°
2026-04-22 23:30 53.73773 10.20690 3010 ft 167 kts 237°
2026-04-22 23:30 53.73060 10.19235 2925 ft 156 kts 238°
2026-04-22 23:30 53.72391 10.17865 2770 ft 149 kts 238°
2026-04-22 23:31 53.71732 10.16517 2595 ft 147 kts 238°
2026-04-22 23:31 53.71094 10.15213 2419 ft 145 kts 239°
2026-04-22 23:31 53.70450 10.13899 2224 ft 144 kts 239°
2026-04-22 23:31 53.69812 10.12597 2033 ft 143 kts 238°
2026-04-22 23:32 53.69178 10.11304 1829 ft 143 kts 239°
2026-04-22 23:32 53.68545 10.10016 1633 ft 141 kts 238°
2026-04-22 23:32 53.67929 10.08764 1438 ft 139 kts 238°
2026-04-22 23:32 53.67321 10.07527 1251 ft 136 kts 238°
2026-04-22 23:33 53.66718 10.06302 1066 ft 134 kts 237°
2026-04-22 23:33 53.66124 10.05094 875 ft 133 kts 236°
2026-04-22 23:33 53.65551 10.03930 702 ft 130 kts 235°
2026-04-22 23:33 53.64973 10.02756 526 ft 131 kts 235°
2026-04-22 23:34 53.64394 10.01580 339 ft 131 kts 234°
2026-04-22 23:34 53.63813 10.00396 160 ft 131 kts 233°
2026-04-22 23:34 53.63224 9.99160 50 ft 128 kts 233°
2026-04-22 23:34 53.62808 9.98385 45 ft 51 kts 231°
2026-04-22 23:35 53.62597 9.97936 43 ft 42 kts 231°
2026-04-22 23:35 53.62471 9.97805 41 ft 16 kts 160°
2026-04-22 23:35 53.62452 9.97821 41 ft 0 kts 151°
2026-04-22 23:37 53.62441 9.97836 41 ft 6 kts 135°
2026-04-22 23:37 53.62432 9.97952 41 ft 14 kts 82°
2026-04-22 23:37 53.62482 9.98125 42 ft 17 kts 51°
2026-04-22 23:37 53.62558 9.98284 42 ft 18 kts 51°
2026-04-22 23:38 53.62640 9.98449 42 ft 19 kts 50°
2026-04-22 23:38 53.62733 9.98633 43 ft 22 kts 49°
2026-04-22 23:38 53.62834 9.98837 43 ft 24 kts 51°
2026-04-22 23:38 53.62944 9.99068 44 ft 20 kts 51°
2026-04-22 23:39 53.63005 9.99209 44 ft 13 kts 69°
2026-04-22 23:39 53.63034 9.99240 43 ft 2 kts 253°
2026-04-22 23:39 53.63012 9.99198 43 ft 9 kts 230°
2026-04-22 23:39 53.62971 9.99115 44 ft 9 kts 230°
2026-04-22 23:40 53.62927 9.99027 44 ft 11 kts 230°
2026-04-22 23:40 53.62861 9.98932 43 ft 14 kts 196°
2026-04-22 23:40 53.62814 9.98972 44 ft 2 kts 59°
2026-04-22 23:40 53.62823 9.98977 44 ft 3 kts 25°
2026-04-22 23:41 53.62846 9.99025 44 ft 4 kts 55°
2026-04-22 23:41 53.62855 9.99052 44 ft 0 kts 62°